Location: Beuerbach
(48.1459°N, 10.9174°E)
Time: 03:33:43
(UTC+00:00)

Cosmos 1745 Rocket - Pass Details

Date: 23 May 2024
Orbit: 953 x 996 km, 83.0° (Epoch: 19 June)

Event Time Altitude Azimuth Distance (km) Brightness Sun altitude
Exits shadow 00:48:38 25° 178° (S) 1,831 4.9 -18.0°
Maximum altitude 00:52:24 78° 96° (E) 1,002 4.1 -17.7°
Drops below altitude 10° 00:58:42 10° 11° (NNE) 2,750 7.6 -17.3°
Sets 01:01:14 0° 11° (N) 3,708 8.5 -17.1°
